Tracking 28790 objects as of 19-Apr-2024
HD Live streaming from Space Station
objects crossing your sky now

PAS 1

Track PAS 1 now!
PAS 1 is classified as:


NORAD ID: 19217
Int'l Code: 1988-051C
Perigee: 36,031.7 km
Apogee: 36,053.9 km
Inclination: 14.2 °
Period: 1,448.8 minutes
Semi major axis: 42413 km
RCS: 2.5148 m2 (large)
Launch date: June 15, 1988
Source: United States (US)
Launch site: FRENCH GUIANA (FRGUI)
Your satellite tracking list
Your tracking list is empty




NASA's NSSDC Master Catalog

Two Line Element Set (TLE):
1 19217U 88051C   24108.29557328  .00000032  00000-0  00000-0 0  9993
2 19217  14.2402  10.4429 0002619  24.1891 162.6493  0.99389834140311
Source of the keplerian elements: AFSPC